Theta_e
327 324 322 319 320 320 317 319 302 310 308 296 296 297 294 304 302 300 299 303 298 303 307 310 307 304 302 298 298 297 297 295 294 290 290 297 303 304 301 302 300 301 303 305 307 307 308 313 318 321 324 326 328 328 329 330 331 332 333 336 338 340 342 342 343 344 345 345 344 344 344 344 343 343 343 343 345 346 345 345 345 344 344 342 342 341 341 339 338 337 337 338 337 335 335 335 335
322 320 320 321 320 324 315 316 307 304 301 294 294 298 297 300 299 297 296 298 299 303 308 309 309 305 304 302 299 298 296 296 296 296 300 306 302 303 301 300 300 300 302 304 306 306 307 309 318 321 323 325 326 327 328 329 329 330 332 334 336 338 340 341 341 342 343 345 344 344 343 343 343 342 342 341 341 342 343 346 345 344 344 343 342 342 341 340 339 338 338 337 337 336 336 336 334
321 321 320 320 319 319 315 312 301 300 296 289 291 294 299 296 295 297 298 299 303 309 311 310 308 306 304 303 299 297 293 300 297 298 300 301 297 298 300 300 300 301 302 305 306 306 307 310 317 320 321 324 326 326 326 327 328 329 330 332 334 335 337 340 341 341 342 343 344 343 343 343 343 342 340 342 342 343 343 342 342 341 343 343 341 341 341 340 339 339 338 338 336 336 335 335 333
325 323 319 318 316 317 309 308 301 296 292 292 290 295 295 295 296 298 299 300 300 304 307 308 304 306 303 298 298 299 295 295 297 296 295 296 297 299 299 300 302 301 302 304 305 306 306 311 317 319 320 323 325 326 326 327 328 328 329 330 331 334 335 337 339 341 341 341 343 343 343 343 342 342 341 341 342 343 342 342 339 340 341 343 341 340 341 340 339 339 338 337 336 336 335 333 332
322 324 319 318 317 312 310 301 296 294 288 291 289 293 294 295 296 299 300 300 299 300 302 306 304 304 303 299 300 295 291 298 297 299 296 299 300 299 299 301 301 301 302 303 305 305 306 313 316 318 320 322 323 324 326 326 326 327 328 329 329 331 332 334 336 337 339 341 342 343 343 343 343 342 342 342 343 344 342 341 341 340 342 342 342 340 341 340 339 339 338 337 336 335 335 334 333
318 319 322 319 311 313 310 297 291 289 291 295 291 291 294 295 295 297 301 300 300 299 300 302 304 301 298 296 298 292 298 291 297 298 297 296 299 300 300 302 300 301 302 303 304 305 306 314 315 317 319 321 322 323 324 325 325 325 326 327 328 329 330 331 333 335 337 339 342 342 343 341 343 341 341 342 342 342 341 342 341 341 339 342 343 342 340 341 340 340 339 337 336 335 335 334 333
318 318 319 320 317 312 297 293 291 290 291 294 291 292 293 294 295 297 297 298 298 299 300 299 304 305 295 296 298 299 300 300 298 298 298 298 300 301 300 299 300 300 302 303 304 305 307 314 315 317 318 319 321 322 323 323 324 324 324 325 327 328 329 330 331 333 334 336 338 340 341 340 341 340 339 340 340 341 342 343 343 342 340 339 340 341 341 340 340 339 339 338 336 336 334 334 334
323 318 315 307 302 300 293 291 290 291 290 293 294 293 294 295 295 295 295 294 293 294 296 298 298 296 299 303 294 300 302 301 299 300 298 297 299 300 300 299 299 299 302 302 304 305 311 312 315 316 317 318 319 321 321 321 322 322 323 324 325 326 327 328 329 331 332 334 335 337 339 339 339 340 341 340 341 340 342 342 343 342 342 341 340 340 340 340 340 339 339 338 337 336 335 334 334
319 314 318 307 297 298 292 290 289 293 291 293 293 296 297 296 296 295 293 294 295 296 295 296 297 296 296 296 294 299 299 300 299 300 297 297 298 300 299 299 299 300 303 302 303 305 306 312 313 315 315 316 317 318 319 320 320 321 322 323 323 324 325 326 327 328 330 332 333 335 336 338 339 339 339 340 340 341 343 342 343 342 343 342 340 340 340 339 339 339 338 338 337 336 335 335 335
315 312 304 304 300 292 291 290 288 289 290 292 292 293 295 296 295 295 294 293 293 294 295 296 297 294 297 294 295 297 296 300 298 296 296 297 299 301 299 300 301 301 301 303 302 304 306 311 313 313 314 315 316 316 317 318 319 320 321 321 322 323 323 325 326 326 328 329 330 332 333 335 337 338 339 340 340 342 342 341 341 342 342 342 341 340 340 340 339 338 338 337 337 336 335 336 336
305 314 315 303 295 291 288 287 289 291 291 292 293 295 295 296 296 294 294 294 295 293 295 296 295 293 296 296 295 300 301 300 296 294 296 297 299 299 300 301 302 303 301 303 303 304 305 306 311 312 313 313 314 314 315 317 318 319 320 320 320 321 322 322 324 325 326 327 328 329 330 332 334 335 338 338 337 339 340 341 342 342 342 341 341 340 339 340 339 338 337 337 336 336 336 336 335
303 303 308 295 293 291 290 288 289 290 292 292 290 294 295 295 295 293 293 291 293 293 292 295 291 296 294 293 293 298 300 298 296 296 296 299 299 300 302 300 302 302 304 302 302 302 304 304 305 310 311 312 312 313 314 314 316 317 318 318 319 320 320 321 321 322 323 324 326 326 328 329 332 333 334 337 337 337 339 341 341 342 340 341 340 340 340 339 338 338 337 337 337 337 337 336 335
306 306 298 294 292 292 291 290 289 291 289 289 290 293 295 294 292 293 294 292 292 292 292 296 296 296 292 291 296 299 298 297 297 297 298 299 300 300 300 298 301 304 305 303 299 301 304 303 303 305 307 311 310 311 312 312 314 316 317 317 318 318 319 319 319 320 321 322 323 324 326 327 330 331 333 334 337 338 338 338 339 341 340 341 340 341 340 338 338 338 338 337 337 337 337 336 335
306 306 301 293 297 293 292 290 291 288 286 290 292 295 294 293 294 293 293 292 291 291 295 298 297 295 293 293 294 294 296 298 297 298 299 300 301 300 301 300 300 300 302 300 298 300 301 303 303 303 304 304 304 308 310 311 312 313 315 315 315 316 316 317 317 318 319 319 320 321 323 325 327 329 330 332 334 336 336 335 336 339 341 341 340 341 340 338 339 338 338 337 337 337 336 335 334
304 307 300 296 293 293 295 290 290 288 285 290 291 294 293 295 295 294 292 292 292 296 298 300 297 295 288 290 291 293 296 298 298 300 300 300 302 300 301 301 298 299 297 298 298 299 300 302 302 301 303 303 303 304 304 307 311 311 313 313 313 314 315 315 315 316 316 317 318 319 321 322 324 326 329 331 332 335 335 335 335 336 339 340 340 340 340 339 339 338 339 337 336 337 336 335 334
308 308 301 294 290 290 290 291 291 287 286 290 293 295 294 294 295 293 294 295 294 298 298 293 298 293 294 293 293 296 298 298 299 302 300 299 299 300 297 296 295 295 296 297 297 297 300 301 301 301 301 302 302 303 304 306 309 311 311 312 313 312 313 313 313 313 313 314 314 315 317 318 321 324 327 329 332 333 336 334 333 334 337 338 338 340 339 338 337 337 336 336 336 335 336 335 335
309 311 294 291 287 288 288 288 290 284 288 291 295 295 292 292 296 296 299 298 295 295 296 297 296 299 295 295 298 299 299 301 304 299 300 297 295 293 294 293 294 293 296 295 296 296 298 300 300 300 301 302 302 302 305 305 306 310 308 310 310 311 311 311 311 311 311 311 311 312 314 313 317 320 322 323 325 332 331 329 331 333 336 338 339 340 339 338 337 335 335 336 336 335 335 334 335
309 294 291 287 287 286 289 289 290 291 289 290 292 293 293 290 295 295 297 296 296 296 295 297 298 298 299 299 300 300 300 299 299 296 296 295 294 292 292 292 293 292 293 294 295 295 297 299 299 299 299 301 301 303 305 305 306 307 305 305 306 306 308 309 308 307 311 307 310 309 310 311 313 317 319 321 321 325 330 328 329 332 334 336 338 339 337 338 338 337 337 337 336 335 333 332 330
295 291 290 285 287 288 292 292 293 291 289 292 292 294 293 291 294 295 293 293 294 293 294 296 295 297 298 299 299 298 299 299 299 297 296 295 294 293 292 293 293 292 292 293 293 294 296 298 298 298 299 300 301 301 304 305 305 304 304 304 305 306 306 305 305 305 305 306 306 307 309 309 310 313 316 319 322 322 324 327 328 329 332 334 337 338 337 338 338 337 337 335 335 333 332 328 325
295 291 286 286 291 291 293 294 293 294 294 292 292 293 292 293 294 297 293 292 294 291 290 292 293 293 295 296 299 300 301 299 298 297 295 295 294 293 293 293 292 292 292 293 293 296 296 297 298 298 299 299 300 300 302 303 304 304 303 304 304 304 303 304 303 304 304 305 305 306 306 307 308 311 316 320 322 322 326 327 327 328 329 331 333 336 336 336 336 336 336 335 333 329 330 326 323
294 291 287 288 291 290 292 294 293 294 295 293 292 295 292 293 294 294 293 291 291 292 294 293 292 293 294 296 297 298 297 296 296 296 295 294 295 295 294 294 292 292 292 293 293 294 294 297 298 298 298 299 300 299 300 301 303 303 303 303 303 303 302 302 302 302 303 303 303 304 305 306 308 309 312 315 318 321 325 330 331 330 330 331 329 332 333 334 334 332 332 331 330 330 329 325 323
295 290 292 292 292 289 293 293 293 293 294 294 294 292 290 295 294 293 293 289 288 291 294 295 295 295 295 295 296 297 295 295 294 293 293 294 294 293 294 293 295 292 293 291 292 292 294 296 297 297 297 298 299 299 299 302 303 302 302 303 302 302 302 301 301 301 301 301 302 304 305 305 305 306 308 312 316 319 323 328 331 331 331 330 330 332 332 332 330 330 329 329 329 330 329 328 324
288 291 292 293 293 291 293 293 293 293 294 293 292 292 295 294 292 294 293 291 293 296 297 296 296 296 296 297 297 295 295 294 293 293 293 293 293 294 294 293 292 291 290 291 292 292 295 295 296 297 296 297 298 299 299 300 301 302 301 302 302 300 301 300 300 300 300 301 301 303 303 303 304 304 306 309 313 319 322 327 329 330 330 331 331 331 331 331 330 330 329 329 329 329 328 327 326
293 288 292 292 293 291 293 292 296 292 292 292 293 296 293 292 289 294 292 294 295 297 297 297 297 297 297 296 296 294 295 296 295 295 296 294 295 295 294 293 291 291 290 291 291 292 293 294 296 296 296 297 297 298 298 299 300 301 301 302 301 301 301 299 299 299 299 300 301 302 303 303 303 303 304 306 311 317 322 326 328 329 330 331 330 330 330 330 329 330 330 328 328 327 327 327 326
290 289 292 292 293 293 293 293 294 294 292 293 296 294 291 292 291 293 292 294 295 296 297 297 297 297 297 295 294 294 294 295 294 295 297 293 295 297 296 293 292 291 290 290 291 291 292 295 295 296 295 296 297 297 297 298 300 299 300 300 300 301 299 298 298 298 298 299 300 301 302 301 301 302 303 305 308 313 319 326 326 327 330 330 331 330 330 329 329 328 328 327 327 326 327 326 325
293 292 293 292 292 293 292 293 293 295 294 295 294 290 292 294 294 292 293 294 296 297 296 297 297 296 295 295 294 294 293 293 294 294 294 293 296 295 294 291 292 291 291 291 291 291 292 294 295 295 295 296 297 296 297 298 299 297 298 299 299 299 298 297 298 297 298 298 298 299 300 301 301 301 303 305 308 311 318 325 326 326 328 329 329 329 330 329 328 328 328 326 325 326 326 323 316
294 293 293 292 292 293 294 292 293 293 294 296 294 290 290 294 294 286 294 295 297 296 296 297 296 295 295 295 295 295 294 293 293 294 293 294 293 292 292 292 290 291 292 290 291 290 293 293 294 295 295 298 296 296 297 298 297 296 297 298 298 297 297 297 297 297 297 297 298 298 300 301 301 301 302 305 308 311 317 325 324 325 327 327 328 328 329 328 329 328 328 327 326 324 316 313 311
294 293 292 292 292 293 293 293 292 292 290 293 292 292 295 296 293 287 292 295 296 294 295 296 296 294 294 295 294 296 295 295 293 294 292 291 290 291 291 290 290 291 290 290 290 291 291 292 294 295 295 295 295 295 297 297 296 296 296 296 296 296 296 295 296 296 296 296 297 298 298 300 301 301 303 305 308 315 321 325 324 324 323 324 326 328 327 328 328 328 327 327 326 319 313 310 309
293 293 289 290 292 291 292 291 293 293 290 292 292 289 291 293 288 293 294 295 295 294 295 296 295 295 294 295 294 293 293 294 294 292 294 292 292 292 291 292 291 290 290 291 290 291 291 292 295 295 295 294 293 294 295 296 295 295 295 295 296 296 295 295 295 295 295 296 297 297 297 299 301 302 303 306 312 318 318 319 318 318 319 320 321 323 327 327 326 324 318 316 314 311 308 306 305
295 293 290 289 289 287 291 294 292 292 291 293 291 281 285 287 291 292 295 295 294 293 293 293 294 293 293 294 293 294 295 294 293 293 293 293 293 293 292 292 293 291 291 290 291 291 293 295 297 297 296 293 295 294 296 296 295 294 295 295 296 295 295 295 294 294 295 295 295 296 297 299 301 302 304 307 314 315 314 314 315 315 317 317 318 318 321 325 320 315 315 312 310 309 306 305 302
290 292 292 287 287 284 291 291 291 290 292 292 292 283 284 289 291 293 295 296 293 291 292 293 293 294 294 294 293 293 294 295 295 294 297 297 296 293 293 292 292 292 291 290 290 291 292 293 297 295 296 292 293 292 294 295 296 294 294 294 295 296 295 295 294 294 295 295 295 296 297 298 301 302 304 308 311 311 311 310 311 314 316 315 314 314 315 314 313 311 310 306 305 303 303 302 300
293 289 287 290 286 286 290 292 291 288 292 293 291 284 284 288 290 293 295 294 293 291 291 292 293 293 293 292 292 292 293 295 296 295 296 297 297 293 294 293 293 292 291 291 291 291 291 292 294 293 293 292 292 293 293 293 294 294 294 296 294 295 294 294 294 294 296 296 295 295 297 298 300 301 303 307 308 309 309 309 310 313 313 312 311 310 310 309 308 307 307 305 300 300 299 298 298
293 291 285 285 288 286 287 290 291 292 290 292 290 283 287 287 291 292 294 294 295 291 291 292 293 293 292 292 292 292 293 293 295 294 295 296 296 294 294 293 293 293 292 291 291 291 291 291 292 292 292 292 292 292 293 292 292 294 295 295 295 294 294 294 294 295 295 295 295 295 296 297 299 300 302 305 306 307 308 308 310 311 311 311 309 308 307 306 304 302 302 302 300 298 297 296 296
287 291 284 287 285 286 285 288 290 290 290 288 290 286 287 289 290 292 293 294 292 290 290 291 292 291 292 292 291 291 292 293 293 294 296 297 297 297 297 296 294 293 293 292 292 291 290 290 291 293 293 292 292 291 292 292 291 291 295 296 298 294 293 295 294 295 294 294 294 294 296 297 299 299 300 304 305 305 306 308 309 309 309 308 308 307 305 305 304 302 300 300 300 297 295 294 294
284 284 285 286 287 287 285 285 287 288 289 287 288 286 288 289 290 291 292 293 291 289 291 291 291 291 291 291 291 291 292 291 294 294 298 298 299 298 295 294 293 294 293 292 292 291 291 290 293 291 292 291 291 291 291 292 291 290 293 297 296 295 294 295 295 294 294 294 293 294 296 297 297 298 299 302 303 304 305 306 307 307 308 306 305 304 303 303 302 302 300 298 299 298 296 295 294
287 287 286 286 284 285 284 288 289 288 286 285 286 285 286 289 289 290 291 291 290 290 291 291 292 291 291 292 292 291 292 292 295 296 299 298 299 299 297 294 294 293 294 293 293 291 291 290 290 290 291 291 291 290 290 290 290 289 290 291 292 293 293 295 295 294 294 293 293 294 295 295 296 297 297 299 301 302 303 304 305 305 305 304 302 301 301 300 299 298 297 297 296 296 296 295 294
289 289 288 285 285 289 288 287 288 290 286 285 287 286 286 287 289 290 290 291 290 290 289 290 290 291 291 291 291 291 291 291 296 297 297 299 298 297 298 297 294 294 294 293 292 292 291 291 290 289 290 291 290 288 289 289 289 289 290 291 290 291 292 295 293 294 293 294 293 293 294 294 295 295 297 297 297 300 301 302 304 304 303 302 301 300 300 299 299 298 297 297 295 293 293 294 294
288 287 287 285 287 286 289 287 289 290 286 285 288 286 287 288 290 289 290 289 288 290 289 289 289 289 290 290 290 290 291 294 296 295 295 296 295 297 297 296 296 293 292 293 292 292 292 291 290 290 290 291 290 289 290 289 290 290 289 289 289 289 290 291 292 293 293 294 292 292 293 293 294 295 296 296 296 296 298 299 300 303 303 301 300 300 300 300 298 298 297 295 296 294 293 295 296
287 285 286 284 285 287 290 288 289 290 288 284 286 285 286 289 290 289 288 289 290 290 291 290 289 290 290 290 289 291 291 292 293 293 295 294 296 297 294 296 295 294 293 293 293 293 292 291 290 290 290 291 290 291 291 289 290 290 290 290 290 288 290 291 292 295 294 292 292 292 292 292 293 292 294 295 294 294 295 296 297 299 302 303 301 300 300 299 299 297 296 295 293 295 295 297 298
285 284 283 281 285 283 281 287 287 289 286 283 285 283 285 289 290 289 289 290 290 294 294 294 293 290 289 289 290 290 291 291 291 291 292 292 293 293 293 294 295 295 294 293 294 292 292 294 291 290 291 291 291 291 294 291 292 291 291 291 291 291 290 290 289 289 290 291 290 291 291 291 292 292 293 293 294 294 294 295 296 297 297 301 303 301 299 298 298 297 296 296 296 294 295 294 297
284 285 281 281 282 279 280 282 286 288 290 289 285 283 283 287 286 286 289 290 292 292 292 292 291 292 292 293 292 293 291 291 291 291 292 292 292 292 292 293 294 295 295 294 294 293 295 292 292 291 290 291 291 292 291 292 291 288 290 290 290 290 289 288 288 288 289 290 290 290 290 290 291 292 292 293 295 294 295 294 295 295 296 296 298 300 300 300 300 299 300 299 299 297 294 293 294
282 280 282 281 282 280 282 285 284 281 281 286 283 279 282 284 285 285 287 287 287 289 287 286 289 290 290 290 291 292 294 293 292 291 292 291 291 292 292 292 293 293 294 295 295 294 292 292 292 291 291 291 290 291 291 292 290 288 288 287 287 285 285 286 286 287 288 288 288 289 290 290 290 290 291 292 293 295 294 295 294 294 295 296 297 298 298 298 299 300 302 301 297 297 296 294 293
281 280 283 285 283 282 282 283 282 280 279 281 284 277 276 282 283 286 286 287 287 289 288 287 289 290 290 292 292 291 292 292 293 293 292 292 291 291 292 291 292 292 294 296 295 294 294 293 292 291 291 290 292 291 291 292 289 289 289 287 287 286 285 286 287 287 288 288 289 289 289 289 290 290 290 291 291 293 293 293 293 293 293 294 295 295 295 296 296 297 299 299 297 297 296 294 295
280 282 285 284 282 282 283 283 279 279 283 281 280 280 276 277 283 287 288 287 286 288 289 289 290 290 291 291 291 292 292 291 292 292 292 293 292 292 291 291 292 292 293 295 295 295 295 294 293 292 291 292 290 291 291 291 290 289 289 287 290 287 286 286 287 286 287 289 288 288 289 288 289 289 289 290 291 291 292 291 291 291 291 292 293 293 293 294 297 298 297 299 299 298 297 295 294
283 286 286 284 284 284 283 280 279 281 278 280 279 278 277 277 281 286 286 283 286 287 288 288 289 290 290 291 291 292 292 292 292 291 291 292 292 293 292 291 292 293 295 295 294 294 294 294 294 293 292 291 290 291 292 290 292 290 289 288 287 289 289 289 289 288 287 288 287 287 287 287 288 289 289 290 290 290 292 291 290 290 290 291 292 291 291 291 291 291 292 292 293 294 295 297 296
287 288 287 286 285 284 284 281 281 282 278 279 276 277 276 276 281 284 285 284 284 286 287 288 289 290 290 291 292 292 291 292 293 292 291 292 293 293 293 293 292 292 295 296 295 294 294 293 293 293 292 291 291 290 291 290 290 291 288 288 288 288 288 288 287 287 286 287 286 286 286 287 287 287 288 289 290 290 290 290 290 289 289 291 291 289 289 288 289 289 290 290 290 291 292 292 292
289 286 283 283 283 280 281 280 280 279 277 278 277 278 278 274 281 282 280 281 286 286 287 288 290 290 291 291 291 292 291 291 291 291 292 292 293 294 294 292 292 293 295 295 295 295 295 295 293 292 292 292 291 290 290 290 290 290 289 289 288 287 287 287 286 287 286 286 286 286 286 287 287 287 287 288 289 290 290 291 290 290 290 291 291 289 289 289 289 289 289 288 289 289 289 290 291
286 283 282 281 281 281 279 281 280 276 280 278 279 278 281 275 280 284 286 287 287 287 286 287 287 288 290 291 291 291 291 291 291 291 291 292 292 293 294 293 292 292 293 293 294 295 295 295 294 293 292 292 292 291 290 290 290 290 290 290 289 288 288 287 286 286 286 285 285 285 285 286 285 288 287 286 287 288 289 289 289 289 289 289 289 290 290 290 290 290 289 289 289 289 290 290 288
282 282 283 280 282 281 279 281 277 280 278 278 278 281 278 276 281 285 286 287 288 289 289 289 288 288 289 289 291 290 291 291 291 290 291 293 292 292 292 292 292 292 292 293 293 293 294 294 294 293 292 292 292 291 290 290 289 288 289 289 289 290 288 289 287 286 287 286 285 285 285 284 285 286 286 286 287 287 289 288 288 287 288 289 289 289 289 289 288 288 289 287 288 287 288 288 287
284 280 278 280 276 276 273 277 280 280 279 279 277 281 277 282 285 287 286 288 288 289 290 290 290 289 289 289 290 290 291 291 291 291 291 292 292 292 293 293 292 292 292 292 292 292 293 294 293 293 293 293 292 291 290 290 289 289 289 289 289 289 288 288 287 286 287 286 287 287 286 285 285 285 286 286 287 287 287 288 288 288 288 288 289 288 288 289 288 287 288 287 287 288 288 288 288
282 284 281 280 279 276 273 276 273 274 278 280 280 277 278 278 282 287 287 287 290 288 289 290 290 290 289 289 290 290 290 290 292 292 292 292 293 292 292 293 292 292 293 292 292 292 292 292 293 293 292 292 292 291 291 290 290 290 289 289 289 288 288 287 287 288 286 287 287 286 286 286 287 286 286 287 288 287 288 288 289 287 288 288 287 287 290 288 288 287 288 287 288 288 287 289 287
281 284 285 281 277 279 278 279 278 274 274 275 277 277 279 281 287 288 288 287 288 289 289 289 289 289 289 290 290 290 291 291 292 292 292 292 292 292 293 293 293 293 293 292 292 292 292 293 293 293 293 292 292 293 291 291 290 290 289 289 289 290 290 289 288 288 286 287 287 286 286 286 286 286 286 286 287 287 287 287 287 288 288 288 287 288 287 287 287 287 287 286 286 289 287 286 286
282 284 280 279 281 279 278 275 274 275 273 273 281 281 284 284 285 287 287 287 286 288 288 288 288 289 290 289 290 290 291 291 291 291 291 291 291 292 293 292 292 293 292 293 293 293 293 293 293 292 292 292 293 293 292 291 291 290 289 289 289 288 288 287 287 287 288 287 287 286 286 286 286 286 288 287 287 287 287 287 287 286 287 288 287 287 288 287 287 287 286 286 286 287 287 286 286
282 281 280 283 282 281 277 276 275 276 275 277 280 278 280 281 280 284 286 284 285 286 287 289 288 289 289 289 290 291 291 291 291 291 291 292 292 292 293 293 293 294 293 293 293 292 293 293 292 292 292 292 292 293 293 292 291 290 290 290 289 289 289 288 288 288 288 287 287 287 286 287 286 287 287 289 287 286 287 289 285 286 287 287 287 286 286 286 286 286 285 286 286 287 285 285 286
284 282 282 281 279 278 280 277 272 270 271 275 279 279 280 281 281 280 282 283 285 286 287 287 288 289 289 289 289 290 290 291 291 291 291 292 291 292 292 293 293 293 293 293 294 294 293 293 293 293 293 292 292 293 292 293 292 292 292 291 290 290 289 289 289 289 288 288 287 287 286 287 287 287 288 287 286 286 286 286 286 285 286 286 286 286 286 285 286 285 286 285 286 285 284 284 284
281 285 282 281 280 277 276 277 276 277 272 274 275 278 277 284 282 283 285 285 287 286 286 287 288 288 289 288 289 290 290 291 291 291 291 292 292 292 292 292 292 293 292 293 293 293 293 293 293 293 294 293 292 292 293 292 292 292 292 291 291 290 290 290 289 289 288 288 288 288 287 287 287 287 287 287 286 286 286 286 286 286 286 286 286 286 286 285 285 285 285 286 284 285 285 284 284
282 280 281 281 280 278 278 278 276 276 273 274 272 272 278 284 286 287 287 287 287 287 288 288 289 289 289 288 289 290 290 291 291 291 291 292 292 292 292 292 293 292 292 292 293 293 293 293 293 293 293 293 293 293 292 292 292 292 291 291 291 290 290 290 289 289 289 288 288 288 288 288 286 287 286 286 286 286 286 287 286 287 286 286 286 286 286 286 285 285 285 285 284 285 285 285 285
281 279 280 280 278 278 275 275 273 274 275 273 272 273 279 287 287 288 287 288 288 289 288 288 288 289 289 289 289 289 290 290 291 291 291 292 291 292 292 292 292 292 292 292 293 293 293 293 294 294 293 293 293 293 293 293 292 293 291 292 291 291 291 290 289 289 289 289 288 288 288 286 287 287 287 287 286 287 287 286 286 286 286 286 286 286 286 286 286 285 285 287 286 285 284 284 284
Wind_Speed
11 9 6 4 4 4 5 3 2 1 1 7 6 6 4 5 9 10 11 2 6 6 4 5 5 7 8 4 9 8 7 6 3 3 2 2 6 6 15 13 13 12 10 9 9 10 10 13 18 22 22 22 23 24 24 24 23 23 23 23 22 24 22 20 16 13 13 13 12 10 9 9 11 10 9 10 7 8 8 7 6 7 6 6 6 6 5 5 4 3 3 3 4 4 5 6 7
8 8 6 3 3 2 1 1 2 1 5 7 7 4 6 8 10 11 9 10 6 4 2 2 6 7 9 9 10 10 10 7 5 1 3 2 10 5 12 12 12 13 10 9 9 10 9 10 19 21 21 22 23 23 24 24 23 23 22 22 21 22 23 22 19 13 13 13 13 11 10 9 10 10 8 9 12 10 8 9 8 8 7 6 6 6 6 6 6 5 4 5 4 4 5 6 6
8 7 7 3 4 2 4 2 2 3 5 7 5 7 7 9 9 9 9 8 7 5 2 4 3 6 5 5 3 8 3 2 8 6 2 7 8 8 12 12 11 10 8 8 9 9 8 10 20 20 20 21 22 22 22 22 23 23 23 21 22 21 21 22 23 18 14 13 13 12 11 10 11 8 9 12 11 13 12 9 6 8 9 8 8 8 7 7 6 6 6 5 5 5 4 5 5
6 6 5 3 2 3 2 1 3 6 8 6 5 6 7 7 8 8 7 7 6 3 1 3 2 3 8 9 4 6 8 4 8 6 3 6 6 9 11 12 11 8 8 8 9 8 8 13 21 21 21 20 21 22 21 21 21 22 21 23 21 21 21 21 21 21 18 15 13 12 12 12 11 10 13 12 14 14 13 8 5 13 12 8 9 9 8 8 7 7 7 6 6 6 5 4 4
4 4 5 2 1 1 2 4 3 5 7 5 5 6 8 7 7 5 6 4 6 6 7 6 4 4 9 8 6 3 4 4 8 6 4 4 8 7 10 11 9 8 8 9 10 9 8 19 20 20 21 21 21 20 21 21 20 20 20 20 21 21 20 21 20 21 21 19 17 14 13 13 12 12 13 13 14 14 13 8 11 12 14 9 10 11 9 9 8 8 8 7 7 7 6 5 5
7 5 4 2 0 1 1 5 8 10 7 5 6 6 6 7 7 5 6 7 5 7 7 7 7 4 4 6 5 3 3 3 5 4 5 5 7 8 9 8 8 8 8 9 9 9 9 18 20 21 21 21 21 21 21 21 21 20 19 19 20 21 21 20 20 20 20 21 20 17 15 13 14 14 13 12 14 12 13 13 12 12 11 13 12 12 11 10 10 9 9 9 9 8 8 7 6
3 3 0 1 2 3 6 8 8 7 8 9 7 7 8 7 6 7 9 5 8 7 7 7 4 5 6 4 8 5 3 3 3 3 5 6 5 7 8 7 6 7 9 8 8 9 11 19 20 21 21 21 20 21 21 20 21 20 19 19 20 20 20 21 21 20 20 20 21 21 17 14 15 15 12 12 12 13 12 14 14 13 15 13 13 12 11 10 10 10 10 10 10 9 8 8 7
3 1 1 1 4 5 9 8 9 5 6 9 7 8 8 7 6 6 8 8 7 6 8 7 6 3 4 6 4 3 4 6 6 4 6 6 6 7 7 7 7 6 8 7 7 7 12 18 21 21 21 21 21 21 21 21 20 19 19 18 19 20 20 20 20 19 19 19 20 20 21 18 13 14 11 13 12 14 14 14 13 14 13 12 13 11 10 11 11 11 11 11 11 10 10 8 8
2 2 1 3 6 4 7 9 8 7 7 6 8 8 7 6 7 6 8 7 5 7 9 10 9 4 3 11 7 3 6 8 6 6 8 7 7 7 6 8 8 7 8 8 7 6 6 15 20 21 21 21 21 21 21 21 19 18 19 19 18 19 20 20 20 20 19 19 19 19 19 20 18 13 17 15 15 16 15 13 13 13 13 12 13 13 8 9 12 12 11 11 10 10 10 10 9
1 0 1 3 5 9 7 6 5 5 7 7 7 8 7 6 7 7 7 9 8 8 9 11 4 8 7 9 7 4 4 7 7 6 8 8 7 6 8 8 7 8 8 8 9 7 6 15 19 20 20 21 21 21 21 21 20 19 18 19 20 19 19 20 20 20 19 19 19 19 18 19 20 19 11 14 16 15 14 13 13 14 13 13 14 14 12 11 11 12 12 12 11 11 10 11 10
1 0 1 2 6 7 6 5 6 4 6 5 7 7 7 5 6 8 7 8 8 10 9 14 6 9 9 7 4 4 8 9 10 10 10 9 8 8 7 7 6 6 7 7 8 7 8 8 19 19 20 21 21 20 21 20 21 21 19 19 20 20 19 19 20 20 20 19 19 18 17 17 17 19 15 17 16 16 14 13 13 13 14 14 15 14 15 12 11 10 13 12 12 12 11 11 11
1 3 3 8 7 7 5 6 6 6 6 4 6 7 4 8 6 7 8 9 8 8 9 9 4 6 5 4 3 4 9 12 9 7 9 7 8 7 6 5 6 6 4 7 6 6 7 8 8 14 20 21 21 20 19 20 20 21 21 20 20 20 20 19 20 20 21 20 19 18 17 16 17 17 18 15 16 14 15 13 12 13 13 14 14 15 15 12 13 12 10 13 13 13 13 12 11
3 4 8 8 5 7 7 7 5 5 4 5 4 6 4 7 8 7 5 8 8 7 7 8 8 2 3 4 3 7 11 10 9 7 8 8 7 7 5 5 6 5 5 8 7 7 7 9 8 8 14 20 19 22 19 19 19 20 21 21 20 20 20 19 20 20 20 21 20 19 18 16 17 18 16 18 14 15 14 13 10 11 12 14 13 14 13 12 13 13 14 15 14 13 13 12 12
3 3 4 6 4 6 5 4 5 4 3 3 3 2 6 5 5 6 5 7 7 7 4 6 6 6 4 4 4 6 7 8 8 7 7 8 7 7 5 5 5 6 5 7 8 7 8 9 9 9 9 10 12 15 17 14 17 20 20 21 20 20 20 19 20 21 21 20 20 19 18 17 17 18 18 16 15 12 13 10 11 12 10 12 12 14 12 13 16 15 15 15 15 14 13 13 12
4 4 4 5 5 3 1 2 4 6 3 3 2 2 4 5 3 4 6 4 6 3 3 4 5 3 3 5 4 7 7 7 7 5 6 7 7 7 5 5 5 5 6 7 7 6 9 8 9 9 9 9 10 10 12 8 16 17 21 21 20 20 19 21 20 20 20 20 20 19 18 19 17 16 17 16 14 13 16 12 13 13 11 10 10 10 12 16 16 16 16 16 15 15 15 14 13
3 2 3 5 5 4 3 4 5 7 3 4 2 1 3 5 4 3 3 2 3 3 4 4 5 4 3 4 4 4 6 5 4 4 5 6 5 5 5 4 5 5 5 6 7 5 8 8 8 9 9 10 9 11 12 10 13 19 20 20 20 20 21 20 21 20 19 19 20 20 19 17 14 11 15 14 12 13 16 12 11 13 13 10 10 11 10 12 11 12 14 12 13 14 14 14 11
1 0 7 5 7 5 5 4 4 3 3 3 1 1 1 4 2 2 1 4 4 2 3 3 4 2 3 2 1 3 5 5 3 4 4 5 5 5 5 4 5 4 5 6 7 7 8 9 9 9 9 11 10 11 8 9 11 19 15 16 19 19 19 20 20 19 18 16 17 18 17 11 9 9 8 9 14 11 11 13 13 14 13 11 15 11 6 10 15 15 16 14 14 11 10 10 9
1 5 6 9 5 7 3 6 4 4 5 3 4 4 4 4 2 3 2 6 5 3 5 6 3 6 4 3 4 4 3 4 3 4 5 5 5 6 6 6 6 7 7 7 5 7 8 8 9 10 9 11 10 10 7 7 6 10 11 8 8 13 14 18 12 12 16 11 17 13 10 10 9 9 10 10 8 11 9 14 15 16 12 14 15 11 11 11 14 17 15 11 12 10 7 5 6
6 4 7 7 3 3 4 4 5 4 4 6 4 3 5 4 4 3 4 5 4 6 6 6 6 5 6 5 5 4 4 3 4 4 5 6 6 8 7 7 7 7 8 8 6 8 7 7 8 11 11 11 11 10 8 8 6 6 7 8 7 11 13 14 11 13 11 11 12 12 11 8 10 10 10 11 11 12 14 14 17 16 13 13 13 14 13 12 13 15 15 14 11 6 5 5 5
11 7 9 7 5 6 8 7 7 6 3 5 4 3 5 3 2 3 2 5 4 6 5 4 5 6 7 6 5 4 3 3 4 4 5 5 5 6 6 7 7 7 7 7 8 7 8 8 9 10 10 10 11 9 8 10 7 8 7 7 7 8 9 10 11 11 10 11 11 11 10 11 10 9 15 17 13 8 9 13 13 16 15 12 10 8 9 10 14 14 15 12 7 5 4 5 5
5 7 4 4 3 4 6 7 7 6 6 5 4 0 4 3 3 4 6 3 5 4 6 5 6 6 6 6 5 5 4 5 5 5 5 5 5 4 4 5 6 6 6 6 7 7 8 7 9 9 9 9 10 9 9 9 10 8 7 7 7 8 8 10 10 10 10 12 12 11 11 11 10 9 10 10 8 7 7 8 7 8 8 7 7 5 4 5 6 5 7 7 5 5 6 6 6
6 8 7 7 5 7 6 7 6 4 3 2 0 3 4 2 3 5 7 7 3 3 4 3 4 4 5 6 6 4 5 5 5 6 5 5 5 5 5 5 4 4 5 6 8 8 7 7 8 8 9 9 9 9 10 10 10 9 9 9 8 7 8 10 9 9 10 11 11 10 10 11 11 9 10 11 10 8 7 6 7 7 7 7 6 5 5 4 5 5 6 6 5 5 6 4 5
9 6 9 8 6 7 4 6 4 4 2 3 3 3 1 2 4 3 5 5 2 2 2 2 3 3 4 5 3 4 4 4 4 4 5 5 5 5 4 5 4 6 6 7 6 6 6 7 8 8 8 9 10 9 9 8 9 9 9 9 10 9 9 10 9 9 10 11 11 11 10 10 10 10 10 11 11 8 8 6 5 4 6 6 6 5 4 5 5 6 5 6 6 7 7 6 5
11 8 6 8 7 9 6 5 1 2 5 4 2 2 1 3 2 1 4 2 3 1 2 2 3 3 5 4 4 4 4 3 4 3 2 3 4 4 4 5 4 4 5 6 6 7 6 8 8 9 8 8 8 8 9 8 8 9 10 10 9 10 11 9 9 9 10 10 11 10 11 9 9 10 11 11 11 10 9 5 3 4 2 4 4 5 5 4 5 5 6 5 4 4 6 5 7
9 9 5 6 7 6 4 3 2 2 3 1 1 1 4 3 2 3 3 3 2 2 2 2 3 5 3 3 4 4 4 4 4 4 3 3 2 3 4 3 4 5 7 6 8 7 6 7 8 9 8 9 8 8 8 7 7 9 10 9 9 12 8 9 10 10 9 9 10 11 11 10 9 9 10 10 11 11 10 6 6 5 4 3 5 4 4 4 4 5 5 6 5 6 6 5 4
7 8 6 7 6 5 3 4 3 3 2 3 3 3 1 1 3 1 3 2 1 1 3 3 3 4 3 3 4 4 4 4 4 4 4 4 4 4 4 4 4 5 6 6 7 6 6 7 8 9 8 8 8 8 7 8 7 10 10 10 10 11 10 11 11 9 9 9 9 11 12 11 10 10 11 10 10 11 10 7 5 5 3 2 4 4 5 5 4 5 5 5 5 5 5 8 8
6 8 8 8 6 3 1 5 3 2 2 1 3 2 2 1 1 2 1 1 0 3 3 1 2 2 2 3 3 2 3 4 3 3 4 4 4 4 4 4 4 5 6 6 6 6 5 6 7 7 7 7 6 7 7 8 8 9 10 10 9 11 11 10 10 9 9 9 9 12 12 11 10 10 11 11 9 11 11 6 6 4 3 3 3 3 3 4 3 5 6 7 7 8 8 8 9
9 9 9 7 5 4 4 4 3 2 2 2 4 2 1 2 2 1 2 1 1 3 3 1 0 1 1 3 2 2 2 2 1 3 4 5 5 4 4 4 4 5 5 6 5 6 6 6 6 6 6 7 7 6 5 7 6 7 9 8 9 10 11 10 10 9 9 9 10 11 11 10 11 10 10 11 10 14 11 4 4 5 3 3 1 2 2 4 4 4 3 5 8 9 9 8 8
11 8 7 7 6 5 3 3 1 2 2 1 3 2 2 3 1 1 2 1 1 3 5 1 0 1 1 1 2 3 3 4 2 3 2 2 3 3 4 3 3 4 5 6 6 6 7 6 6 6 6 6 7 7 5 6 3 6 8 9 8 9 9 10 10 9 9 9 10 11 11 12 10 10 11 11 12 6 8 7 7 7 4 4 5 6 1 4 4 4 7 10 10 10 11 9 9
1 4 5 7 4 5 3 0 3 1 2 1 3 1 2 3 2 3 1 1 2 4 2 1 0 1 1 1 2 3 2 3 4 3 1 1 2 2 3 4 3 4 6 6 6 6 6 5 4 5 5 7 7 6 6 6 3 4 6 8 9 9 8 10 10 8 10 9 10 11 11 11 11 10 10 11 7 6 8 9 8 7 4 5 6 5 4 3 6 8 7 10 8 10 10 8 9
2 2 0 2 2 2 2 2 4 4 2 2 2 1 2 2 3 3 1 1 1 3 4 1 1 1 2 2 2 2 3 2 3 2 2 2 1 1 2 3 3 3 4 6 6 5 5 6 5 5 6 6 7 7 7 7 3 4 5 7 7 8 7 7 8 8 8 9 9 9 10 10 9 10 10 8 6 6 8 8 9 7 5 6 8 7 7 8 8 7 8 12 9 10 8 8 9
1 2 1 1 4 1 3 4 6 4 1 5 1 2 3 2 4 3 2 1 1 2 4 1 1 1 1 3 3 2 3 3 3 4 4 3 2 2 1 2 1 2 4 5 6 5 5 5 6 6 6 6 6 7 6 6 4 2 4 4 6 7 7 8 8 9 8 8 8 8 10 10 10 11 9 7 6 6 8 9 8 7 8 8 8 7 8 8 8 9 7 9 14 8 9 10 9
3 1 0 3 3 4 3 3 5 4 4 4 4 3 2 2 4 4 3 2 0 3 4 2 1 1 2 1 2 2 3 4 3 4 4 3 2 2 3 1 1 1 4 5 5 6 5 6 5 6 7 7 7 7 6 5 6 2 2 4 6 6 8 8 9 8 8 8 8 8 10 10 9 11 8 7 7 8 8 8 8 10 10 9 8 7 8 7 9 10 9 7 11 12 10 12 9
4 3 2 1 2 3 1 2 6 6 3 1 5 3 1 1 4 5 4 1 2 3 3 2 2 1 1 2 2 3 4 4 4 4 4 3 1 1 3 2 1 2 3 4 4 5 5 5 5 5 6 5 6 6 6 6 5 5 1 4 4 6 7 5 7 8 8 8 9 9 10 10 8 10 9 7 6 8 9 9 10 11 10 10 9 8 8 8 8 9 11 8 6 9 12 13 12
3 4 3 1 0 2 3 2 4 5 5 4 4 4 5 3 2 4 3 3 2 3 2 1 2 2 3 3 3 3 4 4 3 4 3 2 1 1 2 3 2 2 2 4 5 5 5 4 5 5 5 6 5 6 6 6 6 4 4 4 5 5 6 4 4 6 6 6 8 9 10 9 9 9 8 9 11 10 11 11 10 10 9 9 9 9 8 7 8 7 11 11 11 8 9 11 12
3 3 1 1 3 1 1 1 2 4 4 4 4 2 4 5 2 3 4 4 1 1 2 1 1 1 1 2 1 3 4 4 2 4 1 2 1 0 0 1 3 4 2 3 4 5 5 5 4 4 5 5 5 5 6 7 6 6 8 7 7 7 7 9 5 4 5 8 10 8 7 8 10 11 13 13 12 11 10 9 9 9 8 8 9 10 8 7 9 11 9 11 11 10 8 8 9
4 2 2 2 2 0 2 3 2 2 3 4 5 4 4 4 5 1 3 1 2 4 2 1 2 0 1 2 2 3 4 4 3 4 3 2 3 3 0 0 2 4 1 3 4 5 5 6 5 6 5 4 4 5 5 6 7 7 5 6 7 8 8 9 9 8 7 6 10 13 13 11 12 13 13 12 11 10 9 8 8 9 8 9 8 9 9 9 8 8 8 7 11 11 8 7 6
3 3 3 2 2 1 1 1 1 1 2 3 1 3 5 5 5 4 4 3 4 1 1 1 4 4 3 3 3 4 3 4 4 5 5 4 4 4 2 1 2 3 3 4 3 4 5 6 5 5 6 5 4 4 4 5 5 5 4 5 4 5 7 8 9 10 10 8 9 9 10 10 10 10 10 10 11 11 10 9 9 8 7 8 9 9 10 9 9 7 6 8 5 7 7 5 2
5 2 3 2 1 4 0 4 1 1 1 5 5 8 10 7 7 3 4 4 0 1 1 0 0 2 3 3 3 4 4 4 4 4 4 4 4 3 4 1 2 2 3 5 2 3 5 5 5 4 6 6 5 4 4 4 4 5 5 4 5 5 3 6 6 6 7 8 9 9 9 8 8 8 8 8 9 10 9 9 9 8 8 6 7 8 7 7 6 6 5 6 9 5 4 1 3
2 4 2 2 3 3 1 1 3 3 1 3 5 8 11 8 6 4 3 2 1 4 2 0 0 1 2 3 2 4 2 4 4 4 5 4 4 3 4 3 1 1 4 4 2 3 4 4 5 4 5 5 4 5 5 4 5 4 6 5 4 4 3 5 5 7 9 10 11 9 10 10 10 10 10 9 9 10 10 10 8 9 8 7 7 7 7 7 6 5 5 5 5 6 1 4 3
4 3 1 2 3 2 1 4 6 8 2 2 7 7 5 3 2 2 2 2 2 1 2 2 3 3 2 4 5 0 2 2 3 4 4 4 4 4 4 4 2 2 3 4 2 2 3 5 5 4 5 5 3 5 5 5 5 4 6 5 3 2 1 3 4 9 9 9 9 10 10 9 10 10 11 11 10 10 9 8 7 6 8 9 8 7 7 7 6 4 3 3 3 2 3 3 2
1 0 0 1 2 3 4 5 7 3 1 1 3 5 0 1 4 3 3 2 2 4 5 4 4 3 5 4 1 2 2 1 1 3 4 4 4 4 4 4 4 3 3 2 2 3 4 4 4 4 4 5 4 3 5 4 5 4 6 7 8 6 6 6 7 7 7 8 9 7 9 10 10 10 10 10 10 9 9 8 7 7 7 7 7 6 6 6 5 5 4 4 5 5 3 4 3
1 1 2 2 2 3 4 5 3 2 2 2 0 3 5 0 2 2 4 3 5 3 6 4 2 2 2 1 1 2 2 2 2 2 2 3 4 4 4 4 3 4 2 1 2 4 4 5 4 4 4 4 4 2 4 4 4 4 5 4 5 6 7 4 3 3 3 3 4 6 6 7 8 9 9 9 9 8 8 8 7 7 6 6 5 5 5 5 3 4 3 4 4 3 3 5 4
1 1 3 2 3 2 2 2 2 3 0 1 3 2 1 3 1 1 2 0 3 4 3 4 4 1 1 0 1 1 1 1 2 3 3 2 1 2 4 4 3 3 4 1 2 3 4 5 5 5 4 4 4 2 4 4 4 4 5 4 4 5 6 6 5 4 4 4 5 4 4 5 6 6 7 8 8 8 7 8 7 6 6 5 5 5 5 4 3 3 4 3 2 3 4 4 4
1 1 2 2 1 3 3 0 2 2 1 1 2 0 1 2 1 2 2 1 3 1 3 4 3 2 2 0 1 1 1 0 1 4 4 3 2 2 3 4 4 4 2 1 3 3 4 4 5 5 6 4 4 1 2 4 3 4 4 3 4 4 4 6 6 5 5 4 5 5 4 4 4 4 5 6 6 7 7 6 7 7 7 6 4 5 4 5 5 5 5 6 4 5 4 3 2
1 2 2 2 1 1 2 2 2 3 2 1 1 2 1 4 0 1 1 2 2 2 3 3 3 1 1 1 0 1 1 0 0 2 4 4 2 1 3 3 4 4 2 1 2 3 3 4 4 5 6 5 4 2 1 2 2 3 4 4 4 4 4 5 5 5 5 5 5 6 4 5 5 5 5 5 6 6 6 6 6 7 6 6 6 5 4 4 4 4 4 4 5 5 5 5 4
2 3 1 2 1 1 1 2 2 2 0 0 0 2 1 3 1 4 2 2 1 1 2 2 1 1 1 2 2 1 1 1 1 2 4 4 4 2 1 3 4 3 1 3 4 3 3 4 4 5 6 6 5 4 2 2 1 1 1 2 3 4 4 4 4 4 4 5 5 5 6 4 5 6 5 6 6 5 5 5 5 4 4 4 5 5 6 5 5 5 4 5 5 5 4 5 5
1 2 2 1 1 0 0 0 1 2 0 0 1 1 2 1 1 2 2 3 3 2 2 3 3 4 3 3 3 3 3 3 3 3 4 4 4 4 2 3 3 3 2 3 3 3 3 4 4 5 6 5 5 4 4 4 3 1 2 1 1 3 2 2 4 4 3 4 4 4 5 4 4 5 5 6 6 6 5 5 4 4 5 4 5 4 4 5 4 4 5 5 5 5 6 6 5
1 3 1 2 1 1 2 1 3 0 1 1 0 2 0 4 3 4 4 4 3 2 1 1 2 3 3 3 3 3 3 4 4 4 4 4 4 5 4 4 4 4 4 4 4 4 3 4 4 4 6 5 5 4 4 5 5 4 3 2 1 1 2 1 2 3 1 2 4 4 5 5 4 4 4 5 5 5 4 5 5 5 5 4 3 4 4 4 4 4 5 4 5 5 4 4 5
7 5 5 3 4 4 1 3 2 0 1 2 3 3 1 2 1 1 4 3 4 1 2 1 0 2 3 3 4 4 5 5 5 4 3 4 4 5 5 4 4 4 4 4 4 4 4 4 4 4 5 5 4 4 4 4 5 5 5 3 3 2 2 2 3 3 1 1 0 0 2 3 4 2 2 1 2 3 3 3 4 4 3 3 3 4 3 4 3 4 4 5 4 3 4 5 4
4 0 2 1 2 1 1 2 2 4 5 2 0 0 1 3 2 2 4 4 1 2 1 1 2 3 4 4 4 5 4 4 2 2 3 4 4 4 4 4 4 4 5 5 4 4 4 5 4 5 5 5 4 5 4 5 5 5 5 4 4 4 4 3 4 3 2 1 1 1 1 1 0 0 1 0 1 2 2 2 1 3 3 3 3 4 4 3 4 3 4 3 3 2 3 4 4
4 3 0 2 0 1 1 1 1 3 5 7 0 2 3 2 0 2 2 2 2 1 3 3 3 4 4 4 4 4 4 4 3 4 4 4 4 4 4 4 4 5 5 5 5 4 5 5 5 5 5 5 5 4 5 5 6 4 5 5 5 4 4 4 4 4 4 3 3 3 3 2 3 2 2 3 0 0 1 2 1 0 1 1 1 1 2 2 3 3 3 3 3 1 3 3 3
3 3 3 1 1 0 1 1 1 1 2 6 2 3 2 1 1 1 0 0 3 3 3 3 3 2 1 4 5 4 4 4 4 4 4 5 4 4 4 4 5 4 5 5 6 5 6 6 5 6 6 5 6 6 6 5 5 5 5 5 5 5 5 5 6 5 4 3 3 3 3 5 4 3 3 4 3 2 1 0 2 1 0 1 1 0 0 0 1 1 2 1 2 1 3 2 2
2 2 1 1 2 2 1 1 1 0 1 2 2 3 5 2 3 1 1 2 4 5 2 0 3 3 2 3 3 3 4 4 4 5 5 5 4 4 4 4 5 5 5 5 6 5 5 5 6 6 6 7 7 6 6 6 6 6 6 6 6 6 6 6 6 6 5 4 4 4 4 5 4 4 4 3 4 4 4 4 3 3 2 2 1 1 1 0 1 1 2 2 2 1 3 3 3
2 1 1 1 0 2 1 1 3 3 4 4 3 3 4 3 2 0 3 3 5 4 3 3 2 1 1 3 3 4 4 4 4 5 5 5 5 5 5 5 5 5 5 5 6 6 5 5 5 6 8 8 8 6 5 6 6 6 6 7 6 6 6 6 6 5 5 5 6 5 5 6 5 4 4 4 4 4 4 4 4 4 4 4 4 3 1 2 2 2 1 2 3 2 2 3 3
2 2 1 0 1 2 1 0 1 1 4 4 7 2 4 0 1 3 1 6 2 3 2 2 2 3 3 4 3 4 5 4 5 5 5 5 5 5 5 5 5 6 5 5 5 5 6 6 6 7 7 7 6 7 6 6 6 6 6 5 6 6 6 7 6 6 6 7 6 6 6 5 6 4 4 5 5 5 5 5 5 5 5 5 5 4 4 4 4 4 4 4 3 4 3 3 4
1 1 0 1 1 1 1 1 0 1 0 1 3 7 3 1 1 0 1 2 3 2 2 3 4 4 5 5 4 4 5 5 5 5 5 6 6 6 6 5 5 5 5 5 5 6 7 6 6 7 8 8 8 8 6 7 6 7 7 8 8 7 8 7 6 6 7 7 7 6 7 7 4 6 5 6 6 6 6 6 6 6 6 6 5 5 5 5 4 5 5 5 4 5 4 4 4
0 1 1 1 2 3 3 3 1 1 0 1 1 9 8 7 1 1 2 0 1 1 2 4 6 6 5 5 5 5 5 5 6 5 5 6 6 6 6 5 5 5 5 6 6 6 6 6 7 6 6 7 7 8 7 8 6 7 8 8 9 7 7 7 7 7 8 8 7 7 7 5 6 7 6 7 7 6 6 6 6 7 7 6 6 6 6 6 7 6 6 5 5 6 6 5 4
Wind_Direction
307 298 285 285 287 270 311 238 269 183 54 57 58 39 76 52 38 48 38 22 33 54 35 54 66 36 54 81 95 90 36 58 24 324 11 290 334 344 6 346 341 338 331 334 340 336 338 342 344 345 343 344 344 344 345 345 346 345 341 336 338 337 340 341 332 323 315 312 307 300 287 279 287 287 277 265 223 202 203 214 225 223 246 220 198 192 194 185 183 178 192 149 123 141 133 117 108
304 307 293 257 259 285 246 137 285 254 86 78 43 55 41 52 51 44 44 47 35 33 39 3 89 109 103 112 133 134 73 69 70 42 252 336 333 6 350 341 339 336 331 338 339 335 334 334 344 343 341 342 344 344 344 343 345 344 341 337 337 338 337 334 331 326 325 317 307 302 295 278 267 266 269 276 279 260 215 212 214 223 239 230 214 209 196 190 179 188 185 167 154 121 116 108 114
306 307 296 213 249 225 284 119 271 288 114 78 70 37 25 51 51 56 53 48 48 60 359 61 57 20 120 153 97 24 65 150 37 12 326 360 333 343 341 338 339 326 333 337 337 332 333 332 340 341 341 340 342 342 343 343 343 343 341 340 338 336 333 333 332 336 329 330 320 302 292 282 261 263 269 259 254 251 234 231 244 282 241 227 222 212 199 192 189 182 186 178 152 135 135 129 115
284 263 276 336 298 189 251 156 27 35 72 105 97 39 40 38 53 66 65 58 41 39 243 75 23 24 25 48 39 156 53 36 42 8 349 341 10 331 334 336 331 328 335 334 337 331 331 334 335 337 340 340 340 340 342 342 342 343 342 339 338 334 332 331 331 333 333 328 325 311 289 280 273 233 237 246 243 250 250 243 200 246 254 248 229 214 203 193 192 183 184 177 163 152 149 153 157
254 254 217 273 354 314 354 62 34 23 48 343 86 56 42 34 37 46 71 71 58 35 16 356 133 24 72 54 5 17 349 318 31 16 352 336 353 341 332 329 326 337 336 340 334 334 333 332 332 335 337 338 341 341 340 341 342 342 341 338 336 334 332 331 331 331 330 331 323 316 299 280 274 261 242 242 248 245 250 243 225 230 241 240 243 223 203 196 186 185 181 179 166 158 162 158 150
262 239 203 235 272 215 10 66 54 62 33 13 81 52 44 22 21 11 84 57 72 60 21 34 7 88 65 40 32 87 336 34 329 13 353 353 339 352 330 320 336 336 344 341 334 338 332 330 334 335 335 336 337 341 341 339 340 341 339 339 336 335 333 331 328 328 328 328 327 323 315 292 273 262 253 242 244 243 242 241 233 225 249 237 228 223 205 195 187 186 183 174 168 169 171 164 161
318 317 321 246 87 16 68 74 77 71 39 40 55 57 36 26 4 24 23 109 31 53 25 19 360 118 114 118 96 76 85 45 11 0 19 338 348 342 324 331 339 341 347 335 344 334 328 332 334 335 334 334 336 338 340 340 338 339 339 337 337 336 334 330 328 328 326 325 323 321 321 313 285 268 270 272 259 249 242 237 230 222 217 239 237 220 210 199 190 189 186 177 170 173 175 168 162
241 356 82 71 69 59 65 68 63 52 71 58 53 51 31 32 11 35 49 24 41 22 16 1 3 315 85 169 80 165 63 43 29 28 5 353 352 326 332 345 338 348 338 338 342 333 328 334 336 336 335 336 336 336 338 339 337 337 337 337 335 336 334 332 329 328 325 321 320 320 321 324 308 280 270 256 259 260 250 245 241 234 224 218 238 238 223 210 193 190 188 182 175 174 172 165 161
199 235 33 84 72 74 80 72 79 62 70 57 66 48 34 15 31 24 57 38 42 37 22 358 343 15 41 81 80 97 56 30 22 19 7 351 348 328 343 344 339 341 332 337 338 332 326 337 336 336 336 336 336 336 337 337 337 336 336 335 334 336 334 332 330 328 327 322 319 319 321 321 325 301 250 256 252 248 252 245 237 235 225 221 229 229 238 217 209 188 188 186 182 177 171 165 167
228 100 246 109 126 90 89 79 77 66 78 68 52 34 24 12 41 37 38 51 36 35 21 342 1 27 346 97 120 52 52 30 13 14 3 354 341 340 342 339 338 336 327 340 339 329 339 338 339 337 336 337 336 337 337 336 336 335 336 336 334 332 334 332 330 328 326 323 321 319 319 321 320 326 286 260 250 251 253 253 245 233 225 222 219 217 217 224 215 200 186 186 186 182 175 171 172
294 262 27 111 85 89 82 108 99 104 91 83 56 37 8 20 25 47 33 47 47 44 19 350 60 1 328 79 57 141 63 30 17 7 354 351 338 339 335 328 330 323 325 344 331 345 342 339 341 340 338 337 337 336 335 336 338 334 334 335 335 331 331 332 330 329 327 324 322 320 317 316 314 315 311 253 258 260 255 252 245 238 228 222 216 206 216 213 214 215 203 189 186 183 178 180 179
125 350 48 72 59 88 95 99 101 99 78 64 65 24 347 36 19 27 46 35 13 53 34 1 358 333 333 29 111 81 38 24 19 1 353 339 334 336 326 321 320 316 339 346 330 348 346 345 338 341 340 340 339 333 335 339 338 336 332 332 335 332 331 332 330 330 327 325 322 321 318 311 306 306 304 295 251 255 257 251 250 245 240 232 219 211 212 214 210 207 214 198 189 183 183 186 183
50 48 77 70 88 85 112 105 113 109 84 51 40 40 2 50 26 11 29 61 29 22 29 8 313 322 19 359 57 34 22 13 8 2 345 339 333 331 319 325 313 326 3 346 340 345 352 344 341 342 341 342 339 337 339 338 337 337 333 332 333 332 331 331 330 329 327 324 323 321 318 314 307 298 297 303 278 247 247 250 260 258 246 238 218 211 202 214 211 205 211 208 191 189 186 186 184
36 355 94 95 85 91 101 120 149 105 64 78 56 55 46 35 23 21 350 62 40 20 54 346 347 337 1 336 84 19 2 359 1 358 338 339 330 321 321 319 330 341 7 346 346 342 350 343 344 345 341 343 337 334 325 334 340 335 332 331 332 331 330 331 331 329 327 326 324 321 319 317 309 303 299 297 297 248 249 255 267 256 253 242 229 217 198 213 210 205 212 206 195 193 191 190 189
41 36 65 91 94 98 86 90 80 93 68 71 20 340 89 50 358 51 21 16 79 353 133 76 346 301 26 337 352 5 343 348 354 347 337 341 329 319 329 327 352 339 3 343 346 336 349 342 345 345 342 341 338 332 323 330 347 338 333 331 332 331 334 332 330 329 327 326 325 323 319 318 312 304 303 298 294 271 244 232 242 250 248 246 240 232 208 208 215 208 208 206 205 191 192 189 191
35 353 91 98 81 78 17 90 99 85 91 78 80 316 113 99 33 41 24 336 108 108 43 39 39 36 20 24 353 335 335 352 326 340 350 335 328 319 329 342 354 341 357 345 338 337 348 343 343 345 343 340 340 336 329 336 350 342 334 334 333 336 335 333 332 331 328 328 327 324 323 320 317 316 314 315 301 282 248 231 228 238 234 232 259 241 221 216 213 226 222 213 213 202 194 190 189
246 15 84 69 76 49 353 31 359 77 119 108 197 337 359 71 129 94 210 293 45 11 95 54 76 54 66 48 317 358 354 320 319 357 357 335 335 333 332 347 348 342 349 345 332 343 345 343 345 348 344 339 341 338 332 338 343 339 329 329 338 335 335 334 333 333 332 330 326 325 324 321 313 315 314 308 311 298 247 232 232 228 222 209 228 233 203 203 202 219 221 207 211 197 203 202 151
12 65 88 72 79 62 28 50 60 120 110 96 63 347 19 68 10 94 228 230 131 135 64 153 152 83 63 69 47 14 340 306 6 7 352 345 343 341 343 352 348 350 346 339 326 349 342 343 347 348 342 341 344 342 333 333 334 333 318 328 344 336 335 332 333 334 333 326 327 326 322 320 321 319 310 311 306 309 276 227 226 231 216 208 219 214 217 211 214 209 201 199 195 183 198 174 139
48 63 56 86 42 67 49 34 44 92 75 94 80 18 58 58 314 6 332 72 37 32 42 21 24 25 23 23 27 3 307 328 14 16 360 352 348 347 345 345 342 346 343 337 332 344 342 340 350 346 342 341 342 340 333 316 320 329 324 340 339 336 333 330 332 334 328 325 326 324 320 318 320 313 305 301 301 303 297 268 224 225 222 221 213 210 208 208 204 199 196 204 188 184 184 159 149
27 88 77 62 78 75 56 55 55 39 119 95 94 61 62 30 4 299 5 357 50 56 18 9 11 357 358 0 7 314 300 352 17 16 5 349 351 350 347 342 339 347 334 327 333 332 339 344 350 341 342 344 342 339 335 320 336 354 339 340 339 335 331 327 331 329 324 325 326 324 319 318 315 309 304 304 310 300 294 278 237 217 215 220 217 212 205 196 191 190 193 189 174 171 186 163 149
344 60 71 126 120 96 53 52 45 38 9 84 69 191 83 32 12 12 339 258 67 52 45 16 349 348 345 349 334 314 4 7 2 13 8 355 350 353 346 334 336 333 320 322 331 326 335 346 348 339 342 344 341 337 334 330 337 335 335 337 340 335 329 329 328 324 327 328 326 320 316 314 315 314 306 305 294 293 284 279 237 214 201 198 205 208 196 196 192 167 173 166 154 170 169 167 158
78 62 90 96 95 83 76 68 32 19 1 73 274 41 53 216 38 14 17 42 28 8 19 8 343 346 335 331 308 338 3 4 357 5 6 351 347 354 341 335 331 330 318 335 324 327 332 348 345 336 341 343 340 340 335 329 332 334 342 345 340 335 329 328 325 324 326 325 318 315 318 319 317 313 307 300 294 285 278 280 246 211 200 198 182 203 185 164 163 158 162 165 154 164 164 144 174
91 57 58 61 67 94 78 69 22 331 23 34 31 46 276 30 93 358 53 41 30 37 21 349 331 327 312 283 309 353 356 358 1 6 360 342 353 354 349 340 342 342 337 322 323 326 331 346 340 339 343 340 338 339 336 336 340 341 336 340 342 333 330 327 326 325 323 322 319 318 320 317 315 311 308 301 296 287 275 260 262 250 189 191 182 186 195 169 165 166 166 175 167 166 156 150 149
86 87 77 71 72 76 72 80 349 28 16 58 41 258 3 344 56 336 62 56 44 1 33 313 303 302 280 308 2 345 357 2 9 15 344 344 14 336 5 337 353 336 332 316 325 327 336 342 339 339 342 342 334 337 339 341 335 337 339 341 339 331 332 330 327 325 322 320 321 319 317 316 314 312 304 300 297 292 276 253 225 250 263 162 163 176 195 165 163 158 168 147 146 145 145 152 147
83 89 93 104 93 85 93 100 73 57 84 73 287 277 59 16 40 301 70 57 5 37 319 301 277 272 290 9 357 355 351 3 11 356 359 12 12 5 3 349 357 338 328 327 325 329 339 340 339 337 342 339 334 340 343 339 335 343 341 339 336 335 334 330 325 322 322 323 322 321 320 315 312 307 301 297 296 291 284 256 216 213 210 178 156 167 192 177 173 166 163 159 157 145 164 130 104
65 97 104 100 94 106 113 108 93 81 80 11 292 76 62 70 18 11 68 45 72 289 252 233 247 278 25 6 359 1 336 13 4 355 8 355 12 15 351 8 355 342 315 323 322 326 336 342 337 334 341 334 335 344 343 340 350 350 344 341 339 338 335 330 326 326 324 326 327 323 319 313 310 306 302 293 289 286 280 243 205 216 215 187 170 178 178 174 174 173 172 162 129 134 116 91 89
126 112 107 107 118 117 124 93 106 112 77 349 312 114 107 89 105 127 86 80 73 285 277 192 259 1 11 10 358 330 348 13 1 0 359 355 359 8 347 2 359 324 319 318 320 330 333 343 326 332 334 331 340 342 348 337 1 355 347 340 342 343 338 333 330 328 327 329 326 321 318 315 311 304 297 294 286 279 268 227 183 192 183 203 181 197 178 162 174 169 180 161 143 120 98 102 99
116 120 110 103 111 113 135 119 116 238 109 357 341 76 2 107 220 43 26 49 314 275 288 267 19 17 8 356 353 302 39 358 49 40 4 353 349 349 341 355 351 332 326 318 323 328 335 328 320 331 330 334 343 340 348 337 7 356 353 343 344 345 338 340 334 333 333 330 327 325 321 314 309 303 298 296 287 272 233 176 143 131 101 44 325 202 181 172 193 176 172 141 120 105 98 87 96
142 138 104 126 117 83 51 65 87 285 87 329 43 320 245 232 145 66 90 289 309 280 262 259 59 41 353 13 327 8 36 351 16 66 26 341 335 333 340 347 11 335 310 310 325 331 335 324 328 330 329 336 343 340 338 327 3 360 6 350 344 344 342 343 339 337 333 334 330 329 321 315 312 308 305 296 295 354 42 68 77 60 44 67 40 7 318 154 172 75 66 89 92 97 94 89 85
162 324 139 150 141 79 23 112 134 257 92 298 116 19 135 131 115 133 120 322 296 291 300 26 97 12 358 2 1 359 18 33 350 103 26 289 331 316 349 336 20 339 313 313 326 331 333 319 328 327 332 339 341 337 332 325 358 11 8 3 348 346 344 341 338 338 340 338 333 328 323 321 317 313 302 303 325 17 51 55 53 52 38 44 65 39 15 62 78 84 77 83 86 93 92 89 87
236 91 103 206 179 54 54 7 345 192 143 181 187 1 119 152 142 142 140 227 306 299 293 321 42 25 342 5 355 8 9 44 14 50 71 33 14 328 7 329 8 333 317 318 320 326 332 327 331 334 332 338 342 340 336 332 346 35 12 11 345 336 342 333 336 336 338 343 334 327 325 324 314 319 308 316 354 18 48 47 50 39 39 50 58 52 68 72 81 65 92 90 79 81 71 72 79
166 87 303 11 59 159 88 23 27 29 182 195 246 273 98 124 147 141 176 230 236 296 291 291 39 357 355 3 346 8 6 2 46 12 34 26 13 4 353 327 354 335 320 311 316 334 332 327 331 328 330 341 342 340 332 335 336 55 17 359 5 347 350 349 344 339 338 336 338 331 334 331 331 325 316 342 8 23 41 42 41 45 47 51 54 61 70 72 82 79 54 99 100 76 88 75 80
189 130 13 5 352 137 140 62 27 359 301 228 199 292 301 125 150 149 148 231 262 280 288 319 15 18 357 1 330 4 3 337 40 8 16 13 12 16 333 337 340 337 308 310 321 331 331 326 333 331 337 343 341 336 333 336 343 19 24 341 359 355 359 356 349 339 338 345 346 342 341 341 332 333 323 357 25 34 41 46 46 52 52 53 55 59 68 68 87 84 62 48 96 107 94 98 81
28 22 103 276 41 328 106 181 40 337 343 314 191 239 317 109 129 156 165 189 265 274 288 338 1 348 1 313 356 6 359 334 29 355 345 350 23 11 337 332 349 330 293 305 314 319 319 319 329 326 330 337 338 338 336 335 343 342 352 320 340 354 352 353 356 347 349 353 348 346 344 344 336 345 335 355 35 43 44 43 46 50 58 60 57 57 64 69 70 85 87 65 59 97 106 102 99
342 350 7 25 153 110 66 1 354 349 356 328 282 242 262 151 176 159 153 159 221 262 298 358 326 336 323 344 343 11 345 349 31 330 323 333 32 53 329 330 331 294 289 296 309 317 320 326 326 326 333 335 341 345 338 329 335 337 333 297 319 331 333 350 8 358 354 357 350 343 351 351 352 351 352 15 29 31 38 36 40 45 57 64 66 61 51 53 70 76 99 101 84 63 87 98 100
9 353 16 244 353 10 40 117 60 21 337 329 272 266 317 317 296 165 153 161 200 280 277 224 264 222 289 290 314 14 338 354 1 314 318 5 43 175 302 325 324 297 269 295 311 324 320 331 321 329 331 334 339 354 344 334 338 345 349 343 339 346 340 341 355 21 350 357 360 359 356 3 8 13 20 19 25 27 33 37 42 44 54 61 68 71 66 57 75 84 77 92 88 94 90 95 108
309 259 315 340 315 85 135 98 359 359 313 242 257 315 290 274 265 202 140 125 212 234 219 240 237 198 260 296 7 12 354 341 324 318 354 10 33 350 168 229 274 291 285 321 321 321 319 327 326 337 326 339 345 356 354 349 340 338 346 349 344 340 342 337 342 348 360 5 5 5 9 8 13 19 20 19 24 26 32 32 41 48 57 63 67 72 80 75 69 76 87 81 108 106 89 97 99
329 324 281 275 170 312 107 85 67 17 43 306 262 276 272 280 289 208 143 146 246 205 26 354 7 344 327 322 15 4 348 328 340 345 346 357 14 351 3 266 275 313 324 308 307 305 312 326 327 332 329 335 343 5 357 347 328 326 326 320 327 324 338 346 343 347 348 351 10 19 11 2 16 27 23 21 29 29 29 26 28 36 52 72 81 82 78 81 83 84 95 95 57 98 106 130 185
291 273 303 321 349 309 147 92 89 306 336 259 330 328 286 278 276 192 156 197 195 106 111 352 355 304 307 352 348 353 332 316 328 337 335 340 354 343 352 338 324 345 312 296 277 325 327 326 322 334 324 326 335 355 2 348 320 324 342 322 351 333 322 341 334 326 333 358 10 15 18 15 15 23 34 33 37 35 36 33 27 21 29 41 69 73 69 68 67 74 77 107 109 69 96 290 290
352 355 8 353 2 12 314 73 350 341 300 301 310 291 287 280 248 183 172 173 159 113 124 223 272 299 311 319 319 286 308 342 336 331 324 328 333 339 344 332 314 308 297 300 326 332 321 315 312 331 322 319 337 350 349 338 321 328 337 330 339 2 341 346 346 352 3 6 10 7 19 17 17 23 23 30 36 38 39 37 30 30 26 23 44 58 58 59 61 63 73 80 94 120 115 44 24
13 54 43 329 13 321 222 308 324 292 243 259 284 267 284 223 195 189 201 150 106 178 161 223 223 193 255 262 267 168 359 350 333 331 325 328 331 339 326 312 344 333 297 297 338 306 301 300 312 325 323 316 343 349 342 334 336 356 334 326 326 357 352 11 4 10 4 359 2 10 11 16 20 22 20 22 27 33 36 39 37 33 38 32 33 46 58 66 71 80 67 59 34 68 110 115 62
106 73 355 282 292 301 301 305 323 350 294 312 33 357 311 210 203 201 153 97 246 190 161 234 249 197 199 248 151 59 6 20 355 327 311 309 327 329 330 329 349 317 308 343 332 293 279 290 305 319 318 319 338 350 333 341 337 358 346 354 353 6 2 3 19 13 1 5 3 348 6 16 19 23 23 20 23 26 28 30 40 44 47 45 43 44 45 46 36 34 54 62 58 47 89 96 112
286 253 269 347 294 266 287 300 20 324 346 290 345 85 286 340 266 222 137 188 245 153 174 203 190 160 240 285 43 54 350 342 332 297 305 318 322 330 319 328 319 317 313 334 315 296 295 285 281 298 308 311 319 349 344 342 347 355 343 6 350 357 353 340 349 0 15 354 7 8 5 9 20 26 21 22 20 21 25 26 29 34 39 41 41 46 54 60 53 34 42 86 90 109 91 89 82
278 223 276 310 254 273 264 270 181 249 223 320 45 63 230 316 294 132 105 330 290 279 165 161 144 184 208 292 18 48 325 337 315 300 286 280 288 303 307 304 311 307 296 330 313 301 295 295 303 302 294 298 304 348 346 336 352 343 340 11 360 353 355 336 340 360 351 357 13 7 18 17 18 32 28 23 22 21 21 22 23 30 39 47 46 40 36 27 36 14 26 59 127 122 110 104 112
256 209 358 290 301 295 314 81 277 250 48 320 337 354 74 244 271 27 73 325 277 79 96 132 163 178 167 258 26 328 287 272 334 311 308 300 284 275 286 305 291 285 284 300 288 282 288 296 294 295 293 287 283 343 331 332 345 340 338 17 0 338 352 335 330 357 0 353 5 347 16 20 28 33 44 33 25 28 28 25 23 24 29 26 38 46 46 45 45 39 30 35 41 45 63 122 126
63 316 187 262 337 321 306 352 299 282 55 279 304 312 55 293 289 201 273 249 305 25 74 115 126 136 131 217 223 252 262 222 272 290 292 295 275 261 240 252 279 271 225 219 253 265 272 273 277 279 282 286 284 295 302 310 333 339 349 1 353 333 349 331 339 354 353 346 359 351 353 14 19 18 26 29 31 29 32 31 34 34 27 24 28 25 28 44 48 54 49 42 36 52 41 50 58
34 31 358 251 241 250 214 226 286 350 19 232 257 327 36 296 248 199 168 224 128 341 18 33 67 127 196 179 214 238 267 287 287 288 289 290 284 255 239 258 260 277 238 217 242 240 250 266 272 278 271 276 282 290 296 276 263 266 319 327 332 331 336 339 353 340 356 341 0 347 351 7 21 19 17 16 16 23 33 38 40 40 43 39 36 28 22 21 30 41 41 44 46 48 38 54 44
10 264 263 187 258 163 187 247 156 61 334 247 173 228 14 163 314 38 100 97 54 76 23 11 10 347 5 6 352 349 328 313 300 302 290 294 307 298 277 284 287 279 279 272 252 242 238 245 255 272 284 277 265 267 288 291 283 258 234 241 283 285 330 340 337 324 346 338 346 354 335 6 17 27 12 12 6 2 17 20 32 41 41 40 39 33 29 27 39 46 47 48 44 39 40 55 54
222 237 237 34 356 60 10 167 6 112 271 238 159 332 3 239 243 137 124 128 105 75 89 38 347 323 333 332 317 302 305 293 281 269 266 272 274 269 276 266 272 273 265 254 257 250 244 250 246 258 275 278 265 248 260 278 295 285 257 233 237 250 270 271 279 295 311 352 342 357 347 351 353 28 12 19 351 357 6 10 14 23 24 24 31 37 29 31 46 52 47 53 58 52 59 65 63
348 33 344 37 19 28 344 335 259 33 300 205 156 219 216 237 120 118 126 100 126 107 126 210 85 270 282 287 291 294 286 267 260 247 244 255 258 262 253 255 253 256 257 259 257 253 251 248 250 247 258 262 269 247 241 261 272 279 287 275 239 231 251 243 239 244 250 202 224 57 318 342 332 20 42 54 329 338 359 2 10 11 11 17 24 19 25 34 44 69 63 58 51 42 60 69 67
313 217 62 122 80 95 355 21 335 256 267 280 289 47 245 0 238 91 112 122 113 159 212 187 221 241 249 252 259 269 278 282 274 268 263 259 265 266 267 257 259 257 253 255 256 250 250 254 256 261 266 267 249 243 240 245 253 258 266 270 269 250 238 234 240 229 213 201 222 201 196 200 305 303 115 343 20 348 338 339 349 1 349 6 19 17 6 27 13 65 80 87 74 76 91 100 91
257 279 174 38 137 268 195 247 276 312 346 327 296 200 181 179 147 103 122 111 245 215 233 224 246 246 242 254 263 266 269 277 278 273 276 272 260 261 269 269 260 254 255 255 252 246 242 243 243 247 250 253 250 242 235 236 246 239 238 242 250 259 266 266 266 261 239 200 213 214 239 214 197 173 191 144 208 289 319 321 327 305 324 340 345 21 16 25 351 57 75 83 76 69 80 75 105
307 18 42 219 218 88 330 51 17 89 73 253 242 324 352 329 326 152 201 198 237 188 252 228 260 257 254 266 263 261 263 273 279 282 279 280 290 283 257 256 264 265 265 258 249 236 232 235 236 247 252 253 245 230 230 230 239 242 244 235 230 235 246 251 251 256 255 229 208 223 228 243 223 188 195 162 182 184 208 218 291 295 286 314 308 244 244 311 317 104 121 138 131 145 108 113 110
314 43 220 105 67 103 112 338 299 282 303 276 9 313 300 3 295 323 175 242 217 201 219 285 266 247 252 275 270 273 279 277 285 292 288 283 277 271 270 255 244 245 247 255 258 253 244 236 232 240 248 248 248 237 227 221 225 233 243 243 235 224 226 234 236 246 255 256 245 227 233 247 233 226 221 197 189 202 200 197 214 242 226 259 265 288 258 262 281 183 183 163 162 169 159 161 170
82 160 186 75 307 5 296 128 348 2 326 297 285 316 274 200 245 335 239 223 209 196 191 227 262 284 267 275 288 293 295 310 302 292 294 293 279 271 266 261 254 246 245 246 250 250 253 249 240 235 244 242 239 234 228 219 209 218 225 231 234 238 232 231 231 230 230 235 240 233 225 227 233 220 207 204 211 225 219 212 206 225 211 212 216 232 228 273 275 288 224 198 189 211 192 174 193
345 9 7 355 114 152 299 192 230 121 265 4 292 11 263 253 176 227 194 202 168 156 225 233 264 266 271 274 277 291 288 280 284 282 279 279 279 269 264 265 268 262 257 253 254 259 255 249 244 245 247 252 253 245 234 227 220 214 227 228 236 232 233 231 232 227 230 230 231 227 231 236 230 219 210 206 209 217 218 220 218 218 219 211 204 213 202 216 226 238 228 232 216 210 232 208 208
352 10 75 2 85 216 143 271 149 163 217 265 303 318 282 243 255 147 85 127 162 157 217 263 265 269 276 276 277 273 276 276 270 271 271 273 278 280 275 267 262 265 263 261 256 252 251 250 248 243 242 248 247 245 236 234 225 225 221 225 229 228 233 230 234 230 234 238 236 230 229 228 221 228 213 214 213 212 214 214 215 216 218 216 209 211 204 204 211 221 228 219 208 200 216 237 209
97 106 81 140 353 353 16 293 32 353 105 267 325 275 282 282 168 311 106 160 115 209 217 259 277 276 274 279 280 272 272 267 261 264 266 270 273 276 276 275 271 269 272 270 258 246 247 244 241 246 245 245 244 248 236 236 229 224 220 226 227 224 227 227 228 231 233 238 239 234 233 227 225 230 211 219 217 216 215 215 214 218 216 216 213 211 208 199 206 213 227 215 198 194 207 225 221